Location: Sabalos
(43.2860°N, 0.1414°E)
Time: 20:47:08
(UTC+00:00)

Cosmos 1400 Rocket - Pass Details

Date: 05 July 2020
Orbit: 520 x 569 km, 81.2° (Epoch: 14 August)

Event Time Altitude Azimuth Distance (km) Brightness Sun altitude
Rises 21:09:33 0° 350° (N) 2,720 7.5 -12.8°
Reaches altitude 10° 21:11:44 10° 350° (N) 1,814 6.4 -13.1°
Maximum altitude 21:15:44 89° 79° (E) 542 2.7 -13.5°
Enters shadow 21:18:23 20° 170° (S) 1,269 4.2 -13.8°
